Change the Weather History Date:

Tuesday, August 6, 2013

  Actual Average Record
Temperature  
Mean Temperature 68 °F -  
Max Temperature 75 °F - - ()
Min Temperature 62 °F - - ()
Cooling Degree Days 4    
Growing Degree Days 18 (Base 50)    
Moisture  
Dew Point 58 °F    
Average Humidity 67    
Maximum Humidity 83    
Minimum Humidity 42    
Precipitation  
Precipitation 0.00 in - - ()
Sea Level Pressure  
Sea Level Pressure 30.00 in    
Wind  
Wind Speed 5 mph ()    
Max Wind Speed 14 mph    
Max Gust Speed -    
T = Trace of Precipitation, MM = Missing Value Source: Averaged Metar Reports

Daily Weather History Graph

Daily Weather History Graph

Search for Another Location

Airport or City:

Trip Planner

Search our weather history database for the weather conditions in past years. The results will help you decide how hot, cold, wet, or windy it might be!

Date:

Astronomy

Aug. 06, 2013 Rise Set
Actual Time 6:12 AM EDT 8:32 PM EDT
Civil Twilight 5:40 AM EDT 9:03 PM EDT
Nautical Twilight 5:01 AM EDT 9:42 PM EDT
Astronomical Twilight 4:17 AM EDT 10:26 PM EDT
Moon 6:03 AM EDT (8/6) 8:03 PM EDT (8/6)
Length of Visible Light 15h 22m
Length of Day
14h 19m
Waning Crescent, 0% of the Moon is Illuminated
Aug 6
Waning Crescent
Aug 6
New
Aug 14
First Quarter
Aug 20
Full
Aug 28
Last Quarter

Hourly Weather History & Observations

Time (EDT) Temp. Dew Point Humidity Pressure Visibility Wind Dir Wind Speed Gust Speed Precip Events Conditions
12:00 AM 63.7 °F 52.2 °F 66% 30.01 in - SSE 3.5 mph - N/A   Unknown
1:00 AM 63.3 °F 53.2 °F 70% 30.01 in - SSW 3.5 mph - N/A   Unknown
2:00 AM 63 °F 52 °F 59% 30.01 in - South 3.5 mph - -  
2:00 AM 62.6 °F 52.3 °F 69% 30.01 in - South 3.5 mph - N/A   Unknown
3:00 AM 63.0 °F 52.5 °F 69% 30.01 in - South 3.5 mph - N/A   Unknown
4:00 AM 62.6 °F 55.4 °F 77% 30.01 in - SSE 5.8 mph - N/A   Unknown
5:00 AM 63 °F 56 °F 72% 30.01 in - SSE 4.6 mph - -  
5:00 AM 63.3 °F 56.1 °F 77% 30.01 in - SSE 4.6 mph - N/A   Unknown
6:00 AM 63.0 °F 57.4 °F 82% 30.02 in - SSE 3.5 mph - N/A   Unknown
7:00 AM 63.9 °F 58.6 °F 83% 30.02 in - ESE 6.9 mph - N/A   Unknown
8:00 AM 66 °F 58 °F 67% 30.02 in - SSE 6.9 mph - -  
8:00 AM 66.0 °F 57.6 °F 74% 30.02 in - SSE 6.9 mph - N/A   Unknown
9:00 AM 68.2 °F 56.5 °F 66% 30.02 in - SSE 6.9 mph - N/A   Unknown
10:00 AM 70.0 °F 58.5 °F 67% 30.03 in - SSE 6.9 mph - N/A   Unknown
11:00 AM 74 °F 56 °F 42% 30.02 in - East 1.2 mph - -  
11:00 AM 73.8 °F 55.6 °F 53% 30.02 in - East 1.2 mph - N/A   Unknown
12:00 PM 72.0 °F 57.7 °F 61% 30.02 in - North 3.5 mph - N/A   Unknown
1:00 PM 74.1 °F 56.8 °F 55% 30.01 in - NE 3.5 mph - N/A   Unknown
2:00 PM 74 °F 59 °F 50% 30.01 in - NNE 6.9 mph - -  
2:00 PM 74.5 °F 59.2 °F 59% 30.01 in - NNE 6.9 mph - N/A   Unknown
3:00 PM 74.3 °F 60.6 °F 62% 30.00 in - NE 11.5 mph - N/A   Unknown
4:00 PM 73.2 °F 61.5 °F 67% 30.00 in - ENE 11.5 mph - N/A   Unknown
5:00 PM 73 °F 62 °F 61% 29.98 in - ENE 13.8 mph - -  
5:00 PM 72.7 °F 62.4 °F 70% 29.98 in - ENE 13.8 mph - N/A   Unknown
6:00 PM 73.4 °F 62.2 °F 68% 29.98 in - ENE 9.2 mph - N/A   Unknown
7:00 PM 72.1 °F 64.2 °F 76% 29.97 in - ENE 12.7 mph - N/A   Unknown
8:00 PM 72 °F 65 °F 71% 29.97 in - ENE 13.8 mph - -  
8:00 PM 72.1 °F 64.6 °F 77% 29.97 in - ENE 13.8 mph - N/A   Unknown
9:00 PM 72.3 °F 62.2 °F 70% 29.98 in - ESE 4.6 mph - N/A   Unknown
10:00 PM 71.8 °F 60.3 °F 67% 29.98 in - ESE 4.6 mph - N/A   Unknown
11:00 PM 70.9 °F 60.6 °F 70% 29.96 in - SE 4.6 mph - N/A   Unknown